Darke County (VES)

 

Airport Diagram
No Airport Diagram Available
Current Weather/Forecast (IFR Conditions)
METAR KVES 071310Z AUTO 32005KT 10SM OVC008 05/05 A3003 RMK AO2 PNO
TAF

Airport Information

All Charts
General
Chart Name View
TAKEOFF MINIMUMS

Approaches
Chart Name Download
RNAV (GPS) RWY 09
RNAV (GPS) RWY 27


Airport Statistics
Departures Arrivals Local
All Collected Stats since June 2016: 3 3 0
2021 Stats: 1 0 0
May Stats: 0 0 0

Inbound Traffic (Arrivals) - 0

No inbound traffic.


Outbound Traffic (Departures) - 0

No outbound traffic.


Local Traffic (Pattern) - 0

No local traffic.